Zurück zum Katalog

STARLINK-4162

AktivKommunikationVLEO
NORAD 53288·PAYLOAD·🇺🇸 United States

Gestartet Jul 24, 2022 von Cape Canaveral Space Force Station

Loading…

Nächste Überflüge (nächste 24 Stunden)

TLE

AktuellSource: CelesTrak SupGP

Epoche: Sep 14, 2026, 20:55 UTC

1 53288C 22086AY  26257.87201389  .00043990  00000+0  12586-2 0  2579
2 53288  53.1592  39.9708 0001078  77.1546 188.3827 15.35375772    18

Verfolge STARLINK-4162 in Echtzeit mit AllMySat

Download on the App Store